Location: East Stourmouth
(51.3000°N, 1.2500°E)
Time: 06:59:03
(UTC+00:00)

Daily predictions for brighter satellites

Satellite Brightness Start Highest point End
(mag) Time Altitude Azimuth Time Altitude Azimuth Time Altitude Azimuth
USA 234 3.6 16:54:13 10° ENE 17:00:34 55° N 17:06:56 10° W
YAOGAN 1 4.1 16:58:21 10° E 17:00:54 16° ENE 17:03:28 10° NNE
ATLAS 5 CENTAUR R/B 2.1 16:57:25 10° SSW 17:01:12 40° ESE 17:05:28 10° NE
CZ-4C R/B 3.0 16:58:26 10° NNE 17:01:32 50° E 17:04:37 10° S
Cosmos 2082 4.2 16:56:14 10° SW 17:01:54 63° NW 17:07:35 10° NNE
FengYun 1-2 T 4.3 16:57:24 10° SSE 17:02:51 60° ENE 17:08:23 10° N
Tsikada Rocket 4.0 16:57:40 10° S 17:03:58 79° E 17:10:14 10° NNE
NOAA 12 4.1 16:59:31 10° SSE 17:04:44 80° ENE 17:10:00 10° NNW
SL-14 R/B 3.7 17:02:04 10° SSE 17:05:44 42° E 17:09:28 10° NNE
ATLAS 3B R/B 3.5 16:59:49 10° NW 17:06:38 61° SW 17:13:42 10° SSE
RESURS DK-1 2.4 17:02:41 10° SSW 17:06:48 68° ESE 17:10:56 10° NE
Cosmos 2228 3.2 17:03:11 10° N 17:07:20 48° ENE 17:11:28 10° SSE
Cosmos 1400 Rocket 3.8 17:03:37 10° NNW 17:07:39 53° W 17:11:37 10° S
Cosmos 1538 Rocket 4.3 17:08:34 10° NNW 17:13:31 43° ENE 17:18:26 10° SE
CZ-4C R/B 2.4 17:09:12 10° SW 17:14:21 72° NW 17:20:39 10° NE
Meteor 2-5 Rocket 3.8 17:09:15 10° S 17:14:40 56° E 17:20:04 10° NNE
CZ-3B R/B 1.3 17:13:25 10° WNW 17:15:23 47° NNE 17:19:11 10° E
SJ 16-02 3.2 17:16:02 10° ESE 17:17:39 12° E 17:18:57 11° ENE
CORIOLIS 4.2 17:16:05 10° SSE 17:21:30 89° WSW 17:26:55 10° NNW
Cosmos 2263 Rocket 2.2 17:16:34 10° SSW 17:22:12 70° ESE 17:27:52 10° NNE
Cosmos 1455 3.5 17:21:47 10° NNE 17:24:38 20° ENE 17:27:29 10° ESE
Cosmos 968 Rocket 4.0 17:19:51 10° SW 17:24:54 60° WNW 17:29:59 10° NNE
Envisat 4.5 17:20:08 10° SSW 17:24:55 41° W 17:29:45 10° NNW
Cosmos 2058 Rocket 3.6 17:22:30 10° N 17:26:42 37° ENE 17:30:54 10° SE
Cosmos 1354 Rocket 4.0 17:21:33 10° SSW 17:26:51 75° ESE 17:32:13 10° NNE
NOAA 11 4.3 17:21:27 10° SSE 17:26:58 90° WSW 17:32:31 10° NNW
USA-17 4.2 17:24:46 10° SW 17:28:19 86° SE 17:30:59 13° NE
Cosmos 1300 2.7 17:25:17 10° N 17:29:07 89° ENE 17:32:56 10° S
NOSS 7 (H) 4.1 17:30:01 10° SW 17:33:13 80° NW 17:35:33 15° NE
Landsat 5 3.6 17:30:08 10° N 17:34:07 71° WNW 17:37:57 10° SSW
GENESIS II 4.3 17:32:09 10° SSW 17:36:08 70° SE 17:39:28 14° NE
ADEOS Rocket 4.3 17:32:12 10° N 17:37:53 38° WNW 17:43:07 10° SW
ARGOS 4.0 17:34:46 10° ESE 17:39:12 27° ENE 17:43:40 10° N
NOSS 3-1 (C) 4.3 17:33:03 10° NW 17:39:42 46° NNE 17:47:11 11° E
Lacrosse 5 1.8 17:34:39 10° WNW 17:39:44 76° NNE 17:44:48 10° ESE
CREW DRAGON DEMO-1 DEB 2.6 17:37:02 10° W 17:39:56 89° S 17:41:52 19° E
Cosmos 1943 4.2 17:36:04 10° NW 17:41:35 52° WSW 17:47:02 10° S
Okean 1-7 Rocket 4.4 17:37:55 10° SSE 17:41:55 31° E 17:45:58 10° NNE
Cosmos 1726 Rocket 3.4 17:37:59 10° N 17:42:22 77° ENE 17:46:45 10° SSE
ERS-2 3.3 17:42:03 18° ENE 17:43:32 23° E 17:46:29 10° SSE
ISS -1.5 17:42:39 10° SSE 17:44:04 12° SE 17:45:00 11° ESE
CZ-2C R/B 4.3 17:45:49 14° E 17:45:49 14° E 17:47:46 10° ESE
Cosmos 1939 Rocket 2.8 17:41:54 10° SSE 17:46:01 85° ENE 17:50:08 10° NNW
Meteor 1-24 Rocket 3.5 17:43:24 10° S 17:48:45 81° E 17:54:04 10° NNE
COSMOS 2455 3.3 17:43:54 10° S 17:49:33 44° ESE 17:54:02 16° NE
Cosmos 1833 Rocket 3.9 17:48:32 10° NNW 17:52:52 22° NE 17:54:41 19° ENE
Cosmos 2082 Rocket 3.8 17:50:47 10° NNW 17:54:29 17° NNE 17:55:56 16° NE
Cosmos 1315 Rocket 4.0 17:51:05 10° NNW 17:54:54 46° W 17:58:44 10° S
USA 229 DEB 4.3 17:49:55 10° NW 17:56:40 44° NNE 18:01:49 19° E
USA 229 4.3 17:50:01 10° NW 17:56:45 44° NNE 18:01:52 19° E
IRS-1C Rocket 4.0 17:51:43 10° SSE 17:56:56 70° ENE 18:02:11 10° NNW
CZ-4 R/B 1.5 17:54:24 10° SE 17:58:20 49° ENE 18:02:15 10° N
Feng Yun 1-1 Rocket 4.2 17:54:12 10° SSE 17:59:38 88° WSW 18:05:15 10° NNW
COSMO-SKYMED 1 2.6 17:56:50 10° NNE 18:01:09 60° ESE 18:05:26 10° S
NOSS 3-4 (A) 4.3 17:56:07 10° W 18:01:50 42° NNW 18:07:06 14° NE
NOSS 3-4 (C) 4.3 17:56:16 10° W 18:01:59 42° NNW 18:07:15 14° NE
Cosmos 2279 Rocket 4.3 17:55:50 10° NNW 18:02:06 74° W 18:08:19 10° S
Cosmos 2227 Rocket 4.3 18:06:13 10° WNW 18:10:16 20° NNW 18:14:20 10° NNE
CZ-4B R/B 1.3 18:08:14 12° NNE 18:11:22 90° W 18:14:42 10° SSW
CZ-4 R/B 4.4 18:07:39 10° SSE 18:11:48 86° W 18:15:59 10° NNW
NOSS 3-1 (A) 4.3 18:05:34 10° NW 18:12:15 46° NNE 18:16:57 23° E
Okean-O 2.5 18:10:05 10° SSE 18:14:29 66° ENE 18:18:54 10° N
Cosmos 923 Rocket 4.0 18:10:00 10° NNW 18:15:19 62° ENE 18:20:35 10° SE
CZ-2C R/B 3.2 18:10:43 10° SSE 18:16:02 84° WSW 18:21:43 10° NNW
Cosmos 1844 Rocket 3.0 18:11:20 10° S 18:16:40 44° ESE 18:19:24 26° NE
Okean O Rocket 3.7 18:13:42 10° SSW 18:17:37 30° W 18:21:34 10° NNW
Cosmos 1689 Rocket 4.2 18:20:00 16° SSE 18:20:00 16° SSE 18:20:45 10° SSE
H-2A R/B 1.9 18:13:32 10° SSE 18:18:28 66° ENE 18:23:34 10° N
Cosmos 1626 4.4 18:15:30 10° SW 18:18:34 24° WNW 18:21:38 10° NNW
ATLAS 2AS CENTAUR R/B 3.7 18:11:51 10° WSW 18:19:32 50° NNW 18:25:31 17° NE
Meteor 1-21 Rocket 4.4 18:14:25 10° SSE 18:19:39 47° E 18:24:58 10° NNE
Aureole 2 Rocket 2.6 18:17:03 10° S 18:19:29 42° SE 18:19:29 42° SE
Cosmos 158 Rocket 3.9 18:15:24 10° NNW 18:20:44 73° ENE 18:26:07 10° SSE
Cosmos 1680 Rocket 3.5 18:17:31 10° NNW 18:22:42 55° ENE 18:26:36 17° SE
SAR-Lupe-4 3.5 18:31:28 60° E 18:31:29 60° ESE 18:35:01 10° S
CZ-2D R/B 4.4 18:28:23 10° S 18:32:06 45° W 18:35:50 10° NNW
Meteor 2-10 Rocket 4.2 18:26:38 10° NNW 18:32:08 60° W 18:37:22 10° S
Cosmos 1818 3.8 18:28:06 10° SSW 18:33:21 51° ESE 18:34:52 39° ENE
H-2A R/B 3.9 18:29:28 10° N 18:33:27 32° WNW 18:37:20 10° SW
Cosmos 2297 Rocket 4.5 18:32:16 10° NW 18:35:16 14° NNW 18:38:18 10° N
YAOGAN 1 2.6 18:32:07 10° SSE 18:36:26 82° WSW 18:40:48 10° NNW
Cosmos 1892 Rocket 4.2 18:33:46 10° SSW 18:38:02 54° WNW 18:42:19 10° N
CSL-04 Rocket 3.6 18:34:58 10° SSE 18:40:20 71° ENE 18:45:50 10° NNW
Helios 1A Rocket 2.9 18:37:11 10° SSE 18:41:20 88° WSW 18:45:31 10° NNW
SAR-Lupe-1 3.9 18:42:35 75° SSE 18:42:35 75° SSE 18:45:57 10° SSW
APEX 4.5 18:35:45 10° SSW 18:42:45 83° ESE 18:46:30 26° NE
USA 234 3.3 18:40:20 35° E 18:43:10 65° NNE 18:49:40 10° WNW
Iridium 4 Rocket 3.6 18:39:37 10° N 18:45:22 63° E 18:50:41 10° SSE
MOS 1 Rocket 3.3 18:41:03 10° N 18:45:24 68° WNW 18:49:38 10° SSW
ATLAS 5 CENTAUR R/B 2.6 18:41:50 10° WSW 18:45:49 40° NNW 18:47:37 28° NNE
Meteor 2-1 Rocket 4.4 18:40:58 10° NNW 18:46:33 71° W 18:52:01 10° S
Cosmos 1092 Rocket 3.9 18:40:38 10° S 18:46:44 63° E 18:52:48 10° NNE
Cosmos 1812 Rocket 3.4 18:44:01 10° N 18:48:27 69° ENE 18:48:54 63° ESE
SKYMED 2 4.4 18:44:57 10° N 18:49:09 49° WNW 18:53:20 10° SW
Cosmos 2344 4.2 18:43:09 10° NW 18:51:57 73° NE 18:59:36 25° ESE
SL-24 R/B - RUBIN 2 4.5 18:45:40 10° SSW 18:52:19 71° SE 18:54:50 40° NE
SJ 16-02 1.2 18:51:04 10° SSW 18:55:29 88° ESE 18:55:59 70° NNE
Aureole 3 4.0 18:52:38 10° NNW 18:56:10 44° W 18:59:11 10° SSW
Cosmos 2112 Rocket 3.9 18:54:55 10° NNW 19:00:14 89° ENE 19:02:18 38° SSE
Cosmos 1455 3.4 18:56:51 10° NNW 19:00:26 41° W 19:04:03 10° SSW
MetOp-A 4.4 19:04:29 48° NNE 19:04:29 48° NNE 19:08:48 10° N
CZ-4C R/B 3.6 18:58:52 10° WNW 19:03:56 32° NNW 19:06:30 24° NNE
Nadezhda 4 Rocket 4.3 18:57:58 10° SSW 19:04:11 67° WNW 19:10:22 10° N
Cosmos 2263 Rocket 3.8 19:01:43 10° WSW 19:06:39 29° NW 19:10:38 14° NNE
X-37B 3.5 19:05:00 10° SSW 19:05:31 13° SSW 19:05:31 13° SSW
COSMOS 2406 3.2 19:09:15 10° NNW 19:14:49 65° NE 19:14:49 65° NE
ERS-2 3.7 19:16:37 32° NW 19:17:09 34° WNW 19:20:27 10° SW
ARGOS 3.6 19:13:52 10° S 19:19:09 59° W 19:24:29 10° NNW
ISS -1.1 19:17:00 10° SW 19:17:58 17° SW 19:17:58 17° SW
Lacrosse 5 3.3 19:17:55 10° WNW 19:22:25 33° SW 19:24:15 25° S
CZ-2C R/B 3.1 19:27:19 53° S 19:27:19 53° S 19:31:33 10° SSW
NOSS 3-1 (C) 4.1 19:23:53 10° NW 19:31:12 76° SW 19:34:39 39° SSE
CZ-4 R/B 4.0 19:30:36 10° SW 19:33:37 20° W 19:36:37 10° NW
COSMOS 2455 3.6 19:29:39 10° WSW 19:35:29 49° NW 19:37:13 38° N
Cosmos 1553 Rocket 3.9 19:29:12 10° N 19:35:40 88° E 19:36:14 76° SSE
Cosmos 1833 Rocket 3.1 19:32:02 10° NNW 19:36:25 55° NNW 19:36:25 55° NNW
Cosmos 1844 4.0 19:32:57 10° SW 19:38:36 65° NW 19:39:07 62° NNW
Cosmos 2082 Rocket 3.3 19:34:20 10° NNW 19:37:48 34° N 19:37:48 34° N
Cosmos 2026 Rocket 4.1 19:35:05 10° SSW 19:41:12 72° WNW 19:47:26 10° N
USA 281 3.8 19:43:33 42° NNE 19:43:33 42° NNE 19:48:15 10° NNW
USA 229 DEB 3.9 19:40:58 10° NW 19:48:13 77° SW 19:49:18 66° S
USA 229 3.9 19:41:05 10° NW 19:48:19 78° SW 19:49:21 67° S
USA 267 3.9 19:51:35 41° S 19:51:35 41° S 19:56:01 10° SW
H-2A R/B 4.4 19:54:42 10° SW 19:58:25 21° W 20:02:13 10° NW
Cosmos 1844 Rocket 3.7 19:55:18 10° WSW 20:00:38 41° NW 20:01:07 40° NW
NOSS 3-1 (A) 4.0 19:56:27 10° NW 20:03:47 75° SW 20:04:26 71° SSW
ATLAS 2AS CENTAUR R/B 4.0 20:05:20 10° WNW 20:12:17 33° N 20:12:56 32° N
USA 234 3.8 20:27:41 53° W 20:27:41 53° W 20:32:46 10° WNW
ATLAS 5 CENTAUR R/B 4.4 20:28:10 10° NW 20:29:10 14° NW 20:29:10 14° NW
SJ 16-02 4.3 20:31:56 10° W 20:33:02 13° WNW 20:33:02 13° WNW
CZ-4C R/B 4.4 20:48:48 10° NW 20:51:41 23° NNW 20:51:41 23° NNW
